Cloud_Cover
73 93 55 88 96 100 100 100 100 100 100 100 100 100 100 100 98 89 100 100 94 57 100 100 100 93 61 9 66 5 9 66 100 90 32 98 55 97 68 100 53 16 5 85 99
1 12 34 58 79 100 100 100 100 100 96 98 86 60 100 100 58 92 100 72 64 95 100 100 100 42 15 82 6 48 9 70 81 53 92 70 64 90 44 72 6 39 85 100 100
0 0 6 2 41 45 14 18 85 100 100 100 97 79 99 100 98 100 100 100 100 79 100 100 100 63 31 100 98 5 5 99 100 99 37 62 94 100 10 96 72 96 5 97 56
0 0 0 0 0 0 0 2 23 100 100 100 100 100 35 96 97 100 100 100 100 100 100 100 100 100 100 100 100 1 14 92 61 100 58 28 19 12 36 100 73 32 11 72 95
28 21 9 0 0 0 0 0 5 3 91 100 100 100 95 75 95 100 100 100 100 100 100 100 100 100 100 100 85 5 96 24 89 100 100 95 54 50 98 46 41 5 34 72 81
2 11 25 20 15 0 0 0 0 1 2 47 60 100 100 100 100 100 100 100 100 100 100 100 100 100 28 99 45 78 33 100 100 100 100 73 54 89 98 28 18 4 18 94 93
0 0 4 38 100 88 16 0 0 0 0 0 1 97 100 100 100 100 81 100 100 100 100 100 100 100 100 100 100 100 100 100 100 100 100 100 37 100 90 5 0 2 66 100 99
0 0 0 0 0 6 47 0 2 0 0 0 4 89 100 100 100 100 100 100 100 98 100 100 100 15 22 100 100 100 100 100 100 100 100 70 99 96 5 0 66 81 6 59 97
0 0 0 0 0 0 0 0 24 0 6 78 98 100 53 5 7 100 71 77 100 100 100 100 100 100 100 100 100 100 100 100 100 100 16 5 81 5 5 9 100 36 84 100 72
0 0 0 0 0 0 0 0 0 0 2 55 80 60 0 100 99 96 47 69 95 43 44 93 46 11 100 63 100 100 91 20 100 82 50 1 37 2 35 36 100 100 100 42 55
17 0 0 0 0 0 61 19 0 0 10 3 0 0 0 100 100 100 100 40 100 53 5 98 80 48 100 100 20 38 5 16 100 83 9 0 4 20 54 100 100 100 100 100 9
0 0 2 0 0 0 83 0 96 83 56 0 0 0 0 1 95 100 100 82 69 47 100 66 0 5 7 12 34 5 4 75 100 73 0 3 0 48 100 100 100 100 98 10 5
0 1 0 0 0 31 5 0 81 100 52 4 0 0 0 0 0 99 100 100 100 99 68 4 54 100 100 97 8 5 69 100 100 5 3 0 20 16 98 100 100 100 38 5 5
0 0 0 0 1 18 15 0 94 100 93 2 0 0 0 0 0 3 96 100 98 96 100 91 80 97 34 5 73 68 100 98 97 8 0 0 27 99 100 100 100 99 5 60 13
0 0 0 0 100 99 0 0 24 99 5 0 0 0 0 0 0 3 0 100 99 15 96 100 100 100 92 90 100 100 100 100 96 0 0 15 100 100 100 100 100 15 3 42 8
0 1 6 70 64 10 2 0 2 58 29 0 5 2 0 0 0 0 2 1 5 0 3 100 98 69 49 100 100 100 66 29 1 0 18 99 61 25 42 80 25 4 70 6 1
0 32 100 100 14 0 4 3 45 81 0 0 55 97 2 0 0 0 1 0 0 0 0 96 94 100 100 18 7 68 1 0 0 20 100 43 0 10 5 47 99 5 5 3 2
2 26 84 85 2 1 81 39 98 2 2 8 22 100 86 4 0 0 0 0 0 0 0 2 15 100 100 94 100 100 99 52 89 100 100 2 24 5 74 100 30 5 5 4 3
8 6 65 6 19 52 91 87 8 5 4 5 11 100 100 100 92 2 0 0 0 5 0 0 39 100 100 100 100 100 98 88 89 34 3 0 100 100 100 100 6 5 5 5 16
100 98 5 46 19 96 81 89 5 5 6 3 5 100 100 100 100 88 0 0 0 3 0 0 0 95 100 100 95 100 26 93 6 1 21 99 100 100 100 95 4 10 29 15 95
26 61 5 84 100 100 100 100 90 100 100 36 5 37 100 100 100 100 88 54 2 0 0 3 0 0 63 6 16 49 57 2 2 41 95 100 100 100 100 24 6 8 8 84 0
32 38 6 98 100 100 100 100 78 90 64 59 6 5 100 100 100 100 100 100 52 2 0 0 2 0 1 40 47 50 47 100 100 100 99 36 100 100 98 6 4 4 97 0 0
100 43 7 100 100 100 100 100 100 100 22 68 14 2 100 100 100 100 100 100 100 100 5 0 0 5 0 2 1 0 84 100 90 5 100 100 99 100 100 33 1 5 5 5 0
74 67 69 98 96 85 100 74 6 94 43 2 10 15 99 100 100 100 100 100 100 100 88 49 0 2 0 1 26 97 100 100 100 60 100 100 88 55 2 0 5 5 5 5 5
9 42 78 100 100 100 100 100 67 85 5 56 32 15 98 100 100 100 100 100 100 100 100 73 2 5 5 3 0 0 16 42 61 100 34 64 1 0 0 3 2 5 5 5 5
87 98 91 100 100 56 22 100 60 77 100 12 80 89 99 100 100 100 100 100 100 100 100 96 0 0 5 5 5 4 0 0 0 0 0 0 4 0 0 0 4 5 5 31 5
13 66 100 90 93 88 100 100 44 80 97 91 61 5 77 100 100 100 100 100 100 100 100 99 5 0 5 5 5 0 0 4 0 0 0 11 97 5 3 12 3 21 10 8 5